User: anonymous   Login
Location: Unspecified
(0.0000°N, 0.0000°E)
Time: 19:03:29
(UTC+00:00)
Language:

Nova 2 - Orbit

View from above orbital plane
View from above orbital plane
View from above satellite
View from above satellite

Ground track
Ground track

The orbit data is extracted from the following two-line orbital elements,

1 19223U 88052A   19077.95395174 +.00000056 +00000-0 +11412-3 0  9990
2 19223 089.9580 084.6566 0029333 317.0292 069.7086 13.22684592484168
Epoch (UTC): 18 March 2019 22:53:41
Eccentricity: 0.0029333
inclination: 89.9580°
perigee height: 1152 km
apogee height: 1196 km
right ascension of ascending node: 84.6566°
argument of perigee: 317.0292°
revolutions per day: 13.22684592
mean anomaly at epoch: 69.7086°
orbit number at epoch: 48416

The dashed part of the orbit path shows where the satellite is in the earth's shadow,  

DLR